{"data":{"norad_id":63045,"epoch":"2026-09-21T21:28:54.802272Z","epoch_age_seconds":45051,"freshness":"FRESH","line1":"1 63045U 25034S   26264.89507873  .00012765  00000+0  38827-3 0  9990","line2":"2 63045  53.1584  76.9342 0001124  87.0297 273.0834 15.34400184 88988","mean_motion":15.34400184,"eccentricity":0.0001124,"inclination_deg":53.1584,"raan_deg":76.9342,"arg_perigee_deg":87.0297,"mean_anomaly_deg":273.0834,"bstar":0.00038827,"rev_number":8898,"period_min":93.847746827434,"perigee_km":461.93378293885,"apogee_km":463.47160370191,"semimajor_km":6840.8396933204,"source":"CELESTRAK","updated_at":"2026-09-22T09:00:49.747401Z"}}